• In Uzbekistan
  • List of Countries
  • For 7 days
  • Water Temperature
  • Satellite Maps
  • Weather Map
  • Weather Widgets
  • user-avatar
    Login

    Hourly Weather Adelaide

    Today, 8 December, Thursday

    Time Temperature Precipitation Wind Pressure Humidity
    00:00 +24°C° 0.8 mm 8 mps 746 mmHg 65%
    01:00 +22°C° 0.1 mm 8 mps 747 mmHg 69%
    02:00 +20°C° 0.1 mm 8 mps 747 mmHg 72%
    03:00 +17°C° 0 mm 8 mps 748 mmHg 74%
    04:00 +16°C° 0 mm 7 mps 749 mmHg 69%
    05:00 +16°C° 0 mm 7 mps 750 mmHg 65%
    06:00 +16°C° 0 mm 7 mps 751 mmHg 60%
    07:00 +16°C° 0 mm 7 mps 751 mmHg 57%
    08:00 +17°C° 0 mm 7 mps 752 mmHg 54%
    09:00 +18°C° 0 mm 7 mps 752 mmHg 51%
    10:00 +18°C° 0.1 mm 8 mps 752 mmHg 49%
    11:00 +18°C° 0.1 mm 8 mps 753 mmHg 48%
    12:00 +20°C° 0.1 mm 8 mps 753 mmHg 46%
    13:00 +20°C° 0.1 mm 8 mps 753 mmHg 46%
    14:00 +20°C° 0.1 mm 7 mps 754 mmHg 46%
    15:00 +20°C° 0.1 mm 7 mps 754 mmHg 46%
    16:00 +18°C° 0.1 mm 7 mps 755 mmHg 49%
    17:00 +17°C° 0.1 mm 7 mps 755 mmHg 52%
    18:00 +16°C° 0.1 mm 6 mps 756 mmHg 55%
    19:00 +16°C° 0 mm 6 mps 756 mmHg 58%
    20:00 +15°C° 0 mm 6 mps 757 mmHg 60%
    21:00 +14°C° 0 mm 6 mps 758 mmHg 63%
    22:00 +14°C° 0 mm 5 mps 758 mmHg 63%
    23:00 +13°C° 0 mm 5 mps 758 mmHg 63%

    Tomorrow, 9 December, Friday

    Time Temperature Precipitation Wind Pressure Humidity
    00:00 +13°C° 0 mm 5 mps 759 mmHg 64%
    01:00 +12°C° 0 mm 4 mps 759 mmHg 66%
    02:00 +12°C° 0 mm 4 mps 759 mmHg 68%
    03:00 +11°C° 0 mm 4 mps 759 mmHg 70%
    04:00 +12°C° 0 mm 4 mps 760 mmHg 67%
    05:00 +13°C° 0 mm 4 mps 761 mmHg 64%
    06:00 +13°C° 0 mm 4 mps 761 mmHg 61%
    07:00 +14°C° 0 mm 4 mps 762 mmHg 57%
    08:00 +15°C° 0 mm 4 mps 762 mmHg 53%
    09:00 +17°C° 0 mm 3 mps 763 mmHg 50%
    10:00 +18°C° 0 mm 4 mps 762 mmHg 47%
    11:00 +20°C° 0 mm 4 mps 762 mmHg 43%
    12:00 +21°C° 0 mm 4 mps 762 mmHg 40%
    13:00 +21°C° 0 mm 4 mps 762 mmHg 41%
    14:00 +21°C° 0 mm 4 mps 762 mmHg 41%
    15:00 +21°C° 0 mm 5 mps 761 mmHg 42%
    16:00 +20°C° 0 mm 5 mps 761 mmHg 46%
    17:00 +19°C° 0 mm 5 mps 761 mmHg 49%
    18:00 +17°C° 0 mm 5 mps 762 mmHg 53%
    19:00 +15°C° 0 mm 4 mps 762 mmHg 59%
    20:00 +14°C° 0 mm 4 mps 762 mmHg 64%
    21:00 +13°C° 0 mm 4 mps 763 mmHg 70%
    22:00 +12°C° 0 mm 3 mps 763 mmHg 73%
    23:00 +12°C° 0 mm 3 mps 763 mmHg 75%

    Day after tomorrow, 10 December, Saturday

    Time Temperature Precipitation Wind Pressure Humidity
    00:00 +11°C° 0 mm 3 mps 763 mmHg 78%
    01:00 +12°C° 0 mm 2 mps 763 mmHg 80%
    02:00 +12°C° 0 mm 2 mps 763 mmHg 82%
    03:00 +10°C° 0 mm 2 mps 763 mmHg 84%
    04:00 +12°C° 0 mm 2 mps 763 mmHg 78%
    05:00 +13°C° 0 mm 2 mps 763 mmHg 73%
    06:00 +14°C° 0 mm 2 mps 763 mmHg 67%
    07:00 +18°C° 0 mm 1 mps 763 mmHg 56%
    08:00 +21°C° 0 mm 1 mps 763 mmHg 44%
    09:00 +25°C° 0 mm 1 mps 763 mmHg 33%
    10:00 +26°C° 0 mm 1 mps 763 mmHg 31%
    11:00 +27°C° 0 mm 2 mps 763 mmHg 29%
    12:00 +28°C° 0 mm 3 mps 762 mmHg 27%
    13:00 +28°C° 0 mm 3 mps 762 mmHg 28%
    14:00 +27°C° 0 mm 4 mps 762 mmHg 30%
    15:00 +27°C° 0 mm 4 mps 761 mmHg 31%
    16:00 +25°C° 0 mm 4 mps 761 mmHg 36%
    17:00 +23°C° 0 mm 5 mps 761 mmHg 42%
    18:00 +21°C° 0 mm 5 mps 761 mmHg 47%
    19:00 +19°C° 0 mm 5 mps 762 mmHg 55%
    20:00 +18°C° 0 mm 4 mps 762 mmHg 62%
    21:00 +15°C° 0 mm 4 mps 763 mmHg 69%
    22:00 +15°C° 0 mm 4 mps 763 mmHg 72%
    23:00 +14°C° 0 mm 4 mps 763 mmHg 75%

    11 December, Sunday

    Time Temperature Precipitation Wind Pressure Humidity
    00:00 +14°C° 0 mm 3 mps 762 mmHg 77%
    01:00 +13°C° 0 mm 3 mps 762 mmHg 79%
    02:00 +13°C° 0 mm 3 mps 762 mmHg 80%
    03:00 +12°C° 0 mm 3 mps 762 mmHg 81%
    04:00 +13°C° 0 mm 3 mps 762 mmHg 77%
    05:00 +14°C° 0 mm 3 mps 762 mmHg 72%
    06:00 +16°C° 0 mm 3 mps 763 mmHg 67%
    07:00 +19°C° 0 mm 2 mps 763 mmHg 57%
    08:00 +23°C° 0 mm 2 mps 763 mmHg 47%
    09:00 +26°C° 0 mm 1 mps 763 mmHg 36%
    10:00 +28°C° 0 mm 2 mps 762 mmHg 32%
    11:00 +30°C° 0 mm 2 mps 762 mmHg 27%
    12:00 +32°C° 0 mm 2 mps 761 mmHg 23%
    13:00 +32°C° 0 mm 2 mps 761 mmHg 23%
    14:00 +33°C° 0 mm 3 mps 760 mmHg 24%
    15:00 +31°C° 0 mm 3 mps 759 mmHg 24%
    16:00 +30°C° 0 mm 3 mps 759 mmHg 28%
    17:00 +28°C° 0 mm 3 mps 759 mmHg 32%
    18:00 +27°C° 0 mm 3 mps 759 mmHg 36%
    19:00 +24°C° 0 mm 3 mps 759 mmHg 42%
    20:00 +21°C° 0 mm 3 mps 759 mmHg 48%
    21:00 +19°C° 0 mm 3 mps 760 mmHg 55%
    22:00 +19°C° 0 mm 3 mps 759 mmHg 54%
    23:00 +18°C° 0 mm 2 mps 759 mmHg 54%

    12 December, Monday

    Time Temperature Precipitation Wind Pressure Humidity
    00:00 +18°C° 0 mm 2 mps 759 mmHg 54%
    01:00 +18°C° 0 mm 2 mps 758 mmHg 53%
    02:00 +18°C° 0 mm 2 mps 758 mmHg 52%
    03:00 +18°C° 0 mm 2 mps 757 mmHg 51%
    04:00 +19°C° 0 mm 2 mps 757 mmHg 46%
    05:00 +21°C° 0 mm 3 mps 757 mmHg 40%
    06:00 +24°C° 0 mm 3 mps 757 mmHg 34%
    07:00 +27°C° 0 mm 3 mps 757 mmHg 28%
    08:00 +30°C° 0 mm 4 mps 757 mmHg 22%
    09:00 +34°C° 0 mm 4 mps 756 mmHg 16%
    10:00 +35°C° 0 mm 4 mps 756 mmHg 15%
    11:00 +37°C° 0 mm 4 mps 755 mmHg 14%
    12:00 +38°C° 0 mm 4 mps 754 mmHg 12%
    13:00 +38°C° 0 mm 4 mps 753 mmHg 12%
    14:00 +38°C° 0 mm 4 mps 752 mmHg 12%
    15:00 +38°C° 0 mm 3 mps 751 mmHg 12%
    16:00 +37°C° 0 mm 3 mps 751 mmHg 13%
    17:00 +36°C° 0 mm 3 mps 751 mmHg 14%
    18:00 +35°C° 0 mm 2 mps 750 mmHg 16%
    19:00 +34°C° 0 mm 3 mps 750 mmHg 16%
    20:00 +33°C° 0 mm 4 mps 750 mmHg 15%
    21:00 +32°C° 0 mm 4 mps 750 mmHg 15%
    22:00 +30°C° 0 mm 4 mps 750 mmHg 17%
    23:00 +30°C° 0 mm 4 mps 750 mmHg 18%

    13 December, Tuesday

    Time Temperature Precipitation Wind Pressure Humidity
    00:00 +30°C° 0 mm 4 mps 749 mmHg 19%
    01:00 +28°C° 0 mm 4 mps 749 mmHg 29%
    02:00 +26°C° 0 mm 5 mps 750 mmHg 40%
    03:00 +25°C° 0 mm 5 mps 750 mmHg 51%
    04:00 +22°C° 0 mm 5 mps 751 mmHg 58%
    05:00 +21°C° 0 mm 5 mps 752 mmHg 66%
    06:00 +20°C° 0 mm 5 mps 753 mmHg 73%
    07:00 +20°C° 0 mm 5 mps 753 mmHg 70%
    08:00 +19°C° 0 mm 5 mps 754 mmHg 67%
    09:00 +19°C° 0 mm 5 mps 755 mmHg 63%
    10:00 +20°C° 0 mm 5 mps 755 mmHg 56%
    11:00 +21°C° 0 mm 5 mps 755 mmHg 50%
    12:00 +22°C° 0 mm 5 mps 754 mmHg 43%
    13:00 +22°C° 0 mm 5 mps 754 mmHg 43%
    14:00 +22°C° 0 mm 5 mps 754 mmHg 43%
    15:00 +22°C° 0 mm 5 mps 754 mmHg 44%
    16:00 +21°C° 0 mm 5 mps 755 mmHg 47%
    17:00 +20°C° 0 mm 5 mps 755 mmHg 51%
    18:00 +19°C° 0 mm 5 mps 755 mmHg 55%
    19:00 +18°C° 0 mm 4 mps 755 mmHg 60%
    20:00 +17°C° 0 mm 4 mps 755 mmHg 65%
    21:00 +17°C° 0 mm 4 mps 756 mmHg 69%
    22:00 +15°C° 0 mm 4 mps 755 mmHg 72%
    23:00 +15°C° 0 mm 5 mps 755 mmHg 74%
    Show more